THORAD DELTA 1 DEB, 9695

Orbit data source: Space-Track

THORAD DELTA 1 DEB, 9695 is space debris in LEO originally from a launch on Fri, 15 Nov 1974 UTC launched from the Air Force Western Test Range (AFWTR). Debris objects in space refer to the collection of defunct objects orbiting the Earth. Examples of debris include non-operational satellites, rocket bodies, and fragments generated from explosions, collisions, or faulty payload assembly.

Loading next visibility...
Identifier
9695, 1974-089DU
Orbit
LEO
Country
Flag of USUS
Related business
Manufacturer
Unknown
Mission
Spacecraft
Bus & Motor
Unknown
Mass
Unknown
Launch date (UTC)
1974-11-15 (51 years ago)
Launch vehicle
Unknown
Launch site
Air Force Western Test Range (AFWTR)
Object type
Payload
Rocket body
Debris
Shape & HBR
Unknown shape, 0.1 m
Radar Cross Section
Small (<0.1 m²)

Expand to show TLE details & history
Last TLE update: 12 hours ago

TLE from 12 hours ago
0 THORAD DELTA 1 DEB
1  9695U 74089DU  26036.35068899  .00000922  00000-0  11687-2 0  9990
2  9695 103.0073  12.6321 0280702 225.3737 132.4182 13.52565331422517
Epoch: 2026-02-05T08:24Z
TLE epoch observation values (Epoch: 2026-02-05T08:24:59.528Z)
Latitude
-0.00006°
Longitude
110.87991°
Altitude
1,209.513 km
Speed
7.179 km/s
True Right ascension
00h 50m 31s
True Declination
0° 00' 00"
Sunlit
Object was in daylight at epoch
Visualization orbit readout
Latitude
Unknown
Longitude
Unknown
Altitude
Unknown
Speed
Unknown
Apparent Right ascension
Unknown
Apparent Declination
Unknown
Sunlit
N/A
Visualization observer readout
Local Sidereal Time
22:10:33
Azimuth
Unknown
Elevation
Unknown
Doppler factor
Unknown
Orbital elements
Apogee altitude
1,269.127 km
Perigee altitude
851.528 km
Semi-major axis
7,438.465 km
Eccentricity
0.02807
Inclination
103.0073°
RAAN
12.6321°
Arg. of periapsis
225.3737°
True anomaly
134.73725°
Mean anomaly
132.4182°
Eccentric anomaly
133.58321°
Mean motion
3.38313 °/min
Orbital period
106.41 mins
BSTAR
0.0011687
Loading maneuver chart data...
Computing Atmospheric mass density...
Loading historical data...
Loading historical data...
Loading historical data...
Loading historical data...
Loading historical data...
Loading historical data...
Loading historical data...

Documentation

Showing up to 5 results
|